Back to catalog

STARLINK-34629

AliveCommunicationsVLEO
NORAD 64790·PAYLOAD·🇺🇸 United States

Launched Jul 16, 2025 from Vandenberg Space Force Base

Loading…

Next Passes (next 24 hours)

TLE

FreshSource: CelesTrak SupGP

Epoch: Sep 14, 2026, 14:28 UTC

1 64790C 25150A   26257.60326389 -.00014894  00000+0 -12479-2 0  2577
2 64790  70.0031  18.0292 0003238 272.1211 211.2621 14.98346473    18

Track STARLINK-34629 in real time with AllMySat

Download on the App Store